Flag for Romania Weather past 2 weeks in Cluj-Napoca, Romania

Now
39 °F

Broken clouds.


Feels Like: 39 °F
Forecast: 31 / 40 °F
Wind: 1 mph from North

Location: Cluj Airport-Napoca

Current Time: Jan 27, 2015 at 5:03:57 PM

Latest Report: Jan 27, 2015 at 4:30 PM


Visibility: N/A

Pressure: 29.95 "Hg

Humidity: 87%

Dew point: 36 °F

Location of Cluj-NapocaLocation

Historic Weather in Cluj-Napoca — Graph

°F

Cluj-Napoca temperature yesterday

Maximum temperature yesterday: 39 °F (at 12:00 AM)
Minimum temperature yesterday: 36 °F (at 11:00 PM)
Average temperature yesterday: 38 °F

Past Weeks' High & Low Weather Summary

 TemperatureHumidityPressure
High50 °F (Jan 22, 3:00 PM)100% (Jan 12, 9:30 PM)30.33 "Hg (Jan 12, 9:30 PM)
Low23 °F (Jan 14, 4:00 AM)62% (Jan 24, 3:30 PM)29.71 "Hg (Jan 24, 2:00 PM)
Average35 °F96%30.04 "Hg
* Reported Jan 12 4:30 PM — Jan 27 4:00 PM, Cluj-Napoca, Weather by CustomWeather, © 2014

Note: Actual official high and low records may vary slightly from our data, if they occured in-between our weather recording intervals... More about our weather records

Advertising

Cluj-Napoca weather history for previous 24 hours

 ConditionsComfort  
Time TempWeatherWind HumidityBarometerVisibility
4:00 PM
Jan 27
39 °FBroken clouds.3 mph93%29.95 "HgN/A
3:30 PM39 °FBroken clouds.3 mph87%29.95 "HgN/A
3:00 PM39 °FBroken clouds.5 mph93%29.95 "Hg4 mi
2:30 PM37 °FFog.2 mph100%29.95 "Hg3 mi
2:00 PM37 °FFog.No wind93%29.95 "Hg2 mi
1:30 PM37 °FFog.1 mph93%29.98 "Hg2 mi
1:00 PM36 °FFog.No wind100%29.98 "Hg2 mi
12:30 PM36 °FFog.No wind100%29.98 "Hg2 mi
12:00 PM34 °FFog.No wind100%30.01 "Hg2 mi
11:30 AM34 °FFog.1 mph100%30.01 "Hg2 mi
11:00 AM34 °FFog.No wind100%30.01 "Hg2 mi
10:30 AM34 °FFog.1 mph100%30.01 "Hg2 mi
10:00 AM34 °FFog.1 mph100%30.01 "Hg2 mi
9:30 AM34 °FFog.No wind100%30.01 "Hg2 mi
9:00 AM34 °FFog.No wind100%30.01 "Hg2 mi
8:30 AM34 °FFog.2 mph100%30.01 "Hg3 mi
8:00 AM32 °FLight rain. Mostly cloudy.3 mph100%30.01 "Hg4 mi
7:30 AM34 °FLight snow. Low clouds.1 mph100%30.01 "Hg4 mi
5:00 AM34 °FLight snow. Overcast.No wind100%30.04 "Hg4 mi
4:00 AM34 °FLight rain. Overcast.2 mph100%30.07 "Hg5 mi
3:00 AM34 °FLight rain. Overcast.2 mph100%30.07 "HgN/A
1:00 AM34 °FLight snow. Overcast.3 mph100%30.09 "Hg4 mi
12:00 AM36 °FLight rain. Mostly cloudy.6 mph100%30.12 "Hg4 mi
11:30 PM
Jan 26
36 °FLight rain. Mostly cloudy.6 mph100%30.12 "Hg4 mi
11:00 PM36 °FLight rain. Mostly cloudy.2 mph100%30.12 "Hg4 mi
9:00 PM37 °FMostly cloudy.2 mph93%30.12 "HgN/A
7:00 PM37 °FMostly cloudy.1 mph93%30.12 "HgN/A
6:30 PM37 °FMostly cloudy.2 mph93%30.12 "HgN/A
6:00 PM37 °FMostly cloudy.3 mph93%30.12 "HgN/A
5:30 PM37 °FMostly cloudy.5 mph93%30.12 "HgN/A
5:00 PM37 °FPartly sunny.5 mph93%30.12 "HgN/A
Weather by CustomWeather, © 2014

See weather overviewHow to use our weather pages